Weather History for Paso Robles, CA

Change the Weather History Date:

Wednesday, April 23, 2014

  Actual Average Record
Temperature  
Mean Temperature 59 °F 58 °F  
Max Temperature 76 °F 75 °F 90 °F (1966)
Min Temperature 41 °F 42 °F 31 °F (1970)
Degree Days  
Heating Degree Days 6 7  
Month to date heating degree days 109 209  
Since 1 July heating degree days 2044 2668  
Cooling Degree Days 0 0  
Month to date cooling degree days 8 0  
Year to date cooling degree days 8 0  
Growing Degree Days 8 (Base 50)    
Moisture  
Dew Point 35 °F    
Average Humidity 48    
Maximum Humidity 76    
Minimum Humidity 20    
Precipitation  
Precipitation 0.00 in 0.02 in 0.44 in (1988)
Month to date precipitation 0.32 0.57  
Year to date precipitation 4.44 8.40  
Since 1 July precipitation 4.90 12.39  
Sea Level Pressure  
Sea Level Pressure 30.05 in    
Wind  
Wind Speed 9 mph (NNW)    
Max Wind Speed 21 mph    
Max Gust Speed 27 mph    
Visibility 10 miles    
Events      
T = Trace of Precipitation, MM = Missing Value Source: NWS Daily Summary

Daily Weather History Graph

Daily Weather History Graph

Search for Another Location

Airport:

Trip Planner

Search our weather history database for the weather conditions in past years. The results will help you decide how hot, cold, wet, or windy it might be!

Date:

Astronomy

Apr. 23, 2014 Rise Set
Actual Time 6:19 AM PDT 7:42 PM PDT
Civil Twilight 5:52 AM PDT 8:09 PM PDT
Nautical Twilight 5:20 AM PDT 8:41 PM PDT
Astronomical Twilight 4:47 AM PDT 9:15 PM PDT
Moon 2:42 AM PDT (4/23) 2:08 PM PDT (4/23)
Length of Visible Light 14h 16m
Length of Day
13h 22m
Waning Crescent, 34% of the Moon is Illuminated
Apr 23
Waning Crescent
Apr 28
New
May 6
First Quarter
May 14
Full
May 21
Last Quarter

Hourly Weather History & Observations

Time (PDT) Temp. Windchill Dew Point Humidity Pressure Visibility Wind Dir Wind Speed Gust Speed Precip Events Conditions
12:53 AM 48.9 °F - 37.0 °F 64% 30.08 in 10.0 mi NW 17.3 mph - N/A   Clear
1:53 AM 48.0 °F - 37.0 °F 66% 30.07 in 10.0 mi NNW 9.2 mph - N/A   Clear
2:53 AM 46.0 °F 43.9 °F 37.0 °F 71% 30.06 in 10.0 mi North 4.6 mph - N/A   Clear
3:53 AM 46.0 °F 41.9 °F 37.0 °F 71% 30.06 in 10.0 mi NNW 8.1 mph - N/A   Clear
4:53 AM 45.0 °F 40.1 °F 37.0 °F 74% 30.06 in 10.0 mi NNW 9.2 mph - N/A   Clear
5:53 AM 45.0 °F 40.6 °F 36.0 °F 71% 30.07 in 10.0 mi NNW 8.1 mph - N/A   Clear
6:53 AM 42.1 °F 39.2 °F 35.1 °F 76% 30.08 in 10.0 mi NNE 4.6 mph - N/A   Clear
7:53 AM 46.9 °F - 36.0 °F 66% 30.10 in 10.0 mi North 4.6 mph - N/A   Clear
8:53 AM 51.1 °F - 37.0 °F 59% 30.10 in 10.0 mi NW 8.1 mph - N/A   Clear
10:53 AM 60.1 °F - 32.0 °F 35% 30.08 in 10.0 mi NNW 6.9 mph - N/A   Clear
11:53 AM 63.0 °F - 30.9 °F 30% 30.08 in 10.0 mi West 6.9 mph - N/A   Clear
12:53 PM 66.9 °F - 30.9 °F 26% 30.07 in 10.0 mi NW 5.8 mph - N/A   Clear
1:53 PM 70.0 °F - 28.9 °F 22% 30.05 in 10.0 mi Variable 4.6 mph - N/A   Clear
2:53 PM 71.1 °F - 30.9 °F 23% 30.03 in 10.0 mi Variable 4.6 mph - N/A   Clear
3:53 PM 73.0 °F - 32.0 °F 22% 30.01 in 10.0 mi NNE 3.5 mph - N/A   Clear
4:53 PM 75.0 °F - 32.0 °F 21% 29.99 in 10.0 mi North 11.5 mph 16.1 mph N/A   Clear
5:53 PM 73.9 °F - 30.9 °F 21% 29.99 in 10.0 mi NNW 18.4 mph - N/A   Clear
6:53 PM 70.0 °F - 35.1 °F 28% 29.99 in 10.0 mi NNW 16.1 mph 25.3 mph N/A   Clear
7:53 PM 64.9 °F - 35.1 °F 33% 30.01 in 10.0 mi NNW 16.1 mph - N/A   Clear
8:53 PM 62.1 °F - 36.0 °F 38% 30.03 in 10.0 mi NW 13.8 mph - N/A   Clear
9:53 PM 57.9 °F - 37.9 °F 47% 30.05 in 10.0 mi WNW 12.7 mph - N/A   Clear
10:53 PM 55.9 °F - 39.0 °F 53% 30.05 in 10.0 mi WNW 10.4 mph - N/A   Clear
11:53 PM 54.0 °F - 39.0 °F 57% 30.06 in 10.0 mi NW 13.8 mph - N/A   Clear